IRIDIUM 106 1 41917U 17003A 26120.93197059 .00000063 00000+0 15309-4 0 9997 2 41917 86.3928 108.3147 0002586 82.4895 277.6594 14.34217935486435 IRIDIUM 103 1 41918U 17003B 26120.50067395 .00000020 00000+0 -23622-7 0 9994 2 41918 86.3927 108.3950 0002353 95.5555 264.5909 14.34217472486393 IRIDIUM 109 1 41919U 17003C 26120.50701624 .00000014 00000+0 -22205-5 0 9992 2 41919 86.3931 108.4513 0002187 90.1918 269.9528 14.34217374486368 IRIDIUM 102 1 41920U 17003D 26120.96368297 .00000014 00000+0 -20852-5 0 9995 2 41920 86.3927 108.1847 0002253 87.2049 272.9404 14.34217689486511 IRIDIUM 105 1 41921U 17003E 26120.85310581 .00000111 00000+0 32322-4 0 9998 2 41921 86.3948 76.6573 0002314 87.5962 272.5499 14.34396628488350 IRIDIUM 104 1 41922U 17003F 26120.97636760 .00000024 00000+0 16187-5 0 9997 2 41922 86.3928 108.2212 0002231 95.7384 264.4066 14.34217624486501 IRIDIUM 114 1 41923U 17003G 26120.98271079 .00000042 00000+0 78346-5 0 9992 2 41923 86.3928 108.2020 0002278 93.2301 266.9155 14.34217931486486 IRIDIUM 108 1 41924U 17003H 26120.94123276 -.00000004 00000+0 -83174-5 0 9999 2 41924 86.3943 76.5132 0002083 82.4700 277.6733 14.34217294488331 IRIDIUM 112 1 41925U 17003J 26120.97002574 .00000010 00000+0 -34319-5 0 9993 2 41925 86.3924 108.0515 0002204 91.7072 268.4376 14.34217714486502 IRIDIUM 111 1 41926U 17003K 26120.95733872 .00000121 00000+0 36136-4 0 9994 2 41926 86.3925 108.1262 0002339 90.3718 269.7746 14.34218852486481 IRIDIUM 113 1 42803U 17039A 26120.65823076 -.00000002 00000+0 -76284-5 0 9990 2 42803 86.3982 342.0527 0001943 92.8255 267.3163 14.34217549464378 IRIDIUM 123 1 42804U 17039B 26120.69971053 .00000065 00000+0 16030-4 0 9993 2 42804 86.4015 13.4833 0002346 85.9426 274.2038 14.34217644463145 IRIDIUM 120 1 42805U 17039C 26120.72165714 -.00000002 00000+0 -79289-5 0 9996 2 42805 86.3972 341.8149 0002082 82.3798 277.7634 14.34217398464377 IRIDIUM 115 1 42806U 17039D 26120.69628037 .00000345 00000+0 96459-4 0 9990 2 42806 86.4512 341.9482 0002469 85.4629 274.6854 14.43278591467416 IRIDIUM 118 1 42807U 17039E 26120.73142226 .00000096 00000+0 27380-4 0 9997 2 42807 86.4012 13.4682 0002160 86.1987 273.9456 14.34218334463143 IRIDIUM 117 1 42808U 17039F 26120.68068276 .00000088 00000+0 24490-4 0 9994 2 42808 86.4010 13.4475 0002311 86.5135 273.6325 14.34217322463169 IRIDIUM 126 1 42809U 17039G 26120.70605289 -.00000005 00000+0 -89321-5 0 9995 2 42809 86.4007 13.4871 0002106 88.8257 271.3180 14.34217481463146 IRIDIUM 124 1 42810U 17039H 26120.56079841 .00000114 00000+0 27876-4 0 9995 2 42810 86.4455 310.2877 0002218 89.3268 270.8187 14.43282013468241 IRIDIUM 128 1 42811U 17039J 26120.90609706 .00000059 00000+0 13933-4 0 9990 2 42811 86.3991 44.9087 0002367 80.2108 279.9355 14.34217501463206 IRIDIUM 121 1 42812U 17039K 26120.72509226 .00000250 00000+0 82368-4 0 9998 2 42812 86.4014 13.5067 0002191 82.2660 277.8784 14.34221523463026 IRIDIUM 133 1 42955U 17061A 26120.86804122 -.00000006 00000+0 -91883-5 0 9993 2 42955 86.3991 45.0413 0002167 84.7301 275.4142 14.34217398447999 IRIDIUM 100 1 42956U 17061B 26120.86169849 .00000029 00000+0 32766-5 0 9992 2 42956 86.3991 44.9634 0002261 84.1674 275.9779 14.34217352447996 IRIDIUM 122 1 42957U 17061C 26120.82998566 -.00000012 00000+0 -11215-4 0 9994 2 42957 86.3988 44.9769 0002171 86.4877 273.6567 14.34217401447997 IRIDIUM 129 1 42958U 17061D 26120.85535511 .00000013 00000+0 -25655-5 0 9999 2 42958 86.3988 45.0328 0001888 88.8706 271.2707 14.34217552448013 IRIDIUM 119 1 42959U 17061E 26120.89341142 .00000023 00000+0 12856-5 0 9998 2 42959 86.3990 45.0126 0002120 88.0775 272.0664 14.34217606448034 IRIDIUM 107 1 42960U 17061F 26120.84267124 -.00000013 00000+0 -11787-4 0 9994 2 42960 86.3989 45.0547 0002369 86.2031 273.9436 14.34217424448036 IRIDIUM 132 1 42961U 17061G 26120.84901357 .00000013 00000+0 -24039-5 0 9992 2 42961 86.3993 45.0318 0002271 85.0393 275.1062 14.34217555448032 IRIDIUM 136 1 42962U 17061H 26120.88072640 .00000011 00000+0 -31104-5 0 9990 2 42962 86.3993 45.0250 0002291 87.2547 272.8912 14.34217612448059 IRIDIUM 139 1 42963U 17061J 26120.81730040 -.00000006 00000+0 -92993-5 0 9997 2 42963 86.3990 45.1126 0002210 82.7548 277.3899 14.34217414448056 IRIDIUM 125 1 42964U 17061K 26120.87438405 .00000015 00000+0 -15469-5 0 9996 2 42964 86.3996 45.1491 0002492 96.0267 264.1213 14.34217630448072 IRIDIUM 135 1 43070U 17083A 26120.70897213 -.00000034 00000+0 -19241-4 0 9990 2 43070 86.3977 341.8712 0002038 86.4108 273.7321 14.34217223437347 IRIDIUM 138 1 43071U 17083B 26120.66457351 -.00000003 00000+0 -81867-5 0 9991 2 43071 86.3989 341.5781 0001972 95.6487 264.4934 14.34217513437329 IRIDIUM 116 1 43072U 17083C 26120.70264881 .00000266 00000+0 88102-4 0 9998 2 43072 86.3979 341.8609 0002304 79.0713 281.0742 14.34212681437366 IRIDIUM 130 1 43073U 17083D 26120.67091677 .00000013 00000+0 -22782-5 0 9990 2 43073 86.3984 342.1442 0002280 84.0523 276.0933 14.34217584437307 IRIDIUM 151 1 43074U 17083E 26120.64554597 .00000004 00000+0 -55856-5 0 9991 2 43074 86.3978 341.9409 0002032 84.3280 275.8147 14.34217544437321 IRIDIUM 134 1 43075U 17083F 26120.68360204 .00000030 00000+0 35194-5 0 9997 2 43075 86.3983 341.9328 0002256 86.3966 273.7488 14.34217600437293 IRIDIUM 137 1 43076U 17083G 26120.69628643 -.00000046 00000+0 -23576-4 0 9992 2 43076 86.3980 342.0189 0001862 71.8786 288.2613 14.34217061437369 IRIDIUM 141 1 43077U 17083H 26120.96901788 .00000230 00000+0 75242-4 0 9997 2 43077 86.3979 341.7388 0002098 88.3237 271.8199 14.34216932437409 IRIDIUM 153 1 43078U 17083J 26120.92119662 -.00000003 00000+0 -82820-5 0 9997 2 43078 86.3932 310.2468 0002083 95.6418 264.5016 14.34217480438503 IRIDIUM 131 1 43079U 17083K 26120.67725872 .00000056 00000+0 13072-4 0 9994 2 43079 86.3986 342.0435 0002081 87.2738 272.8696 14.34217863437296 IRIDIUM 144 1 43249U 18030A 26120.92754234 .00000072 00000+0 18617-4 0 9996 2 43249 86.3930 310.1745 0002194 85.9005 274.2442 14.34217895423364 IRIDIUM 149 1 43250U 18030B 26120.93388455 .00000070 00000+0 17919-4 0 9999 2 43250 86.3929 310.1394 0002080 91.1895 268.9539 14.34217966423382 IRIDIUM 157 1 43251U 18030C 26120.95290918 .00000058 00000+0 13737-4 0 9998 2 43251 86.3931 310.1835 0002156 89.2933 270.8510 14.34218232423367 IRIDIUM 140 1 43252U 18030D 26120.97193926 .00000080 00000+0 21533-4 0 9990 2 43252 86.3933 310.1883 0002223 88.9694 271.1757 14.34218231423421 IRIDIUM 145 1 43253U 18030E 26120.95925234 .00000049 00000+0 10334-4 0 9996 2 43253 86.3933 310.1660 0002285 81.6992 278.4463 14.34218088423350 IRIDIUM 146 1 43254U 18030F 26120.94022418 .00000051 00000+0 11029-4 0 9993 2 43254 86.3931 310.1862 0002192 86.6119 273.5327 14.34218139423369 IRIDIUM 148 1 43255U 18030G 26120.62945564 .00000240 00000+0 78721-4 0 9997 2 43255 86.3934 310.3587 0002059 87.8125 272.3307 14.34218457423358 IRIDIUM 142 1 43256U 18030H 26120.94658618 .00000070 00000+0 17896-4 0 9991 2 43256 86.3929 310.1168 0002254 84.3053 275.8400 14.34217912423363 IRIDIUM 150 1 43257U 18030J 26120.56601106 .00000037 00000+0 62506-5 0 9992 2 43257 86.3934 310.3908 0002179 88.3726 271.7720 14.34217879423330 IRIDIUM 143 1 43258U 18030K 26120.96559576 -.00000029 00000+0 -17254-4 0 9992 2 43258 86.3934 310.3141 0002120 86.0446 274.0992 14.34217125423320 IRIDIUM 161 1 43478U 18047C 26120.95469233 .00000036 00000+0 46088-5 0 9997 2 43478 86.4448 108.2232 0002084 92.1364 268.0076 14.43278052418322 IRIDIUM 152 1 43479U 18047D 26120.93831265 -.00000002 00000+0 -76547-5 0 9992 2 43479 86.3925 108.0909 0002120 91.7241 268.4198 14.34217523415716 IRIDIUM 147 1 43480U 18047E 26120.94465517 .00000011 00000+0 -29783-5 0 9997 2 43480 86.3928 108.0927 0002201 85.9243 274.2205 14.34217573415717 IRIDIUM 110 1 43481U 18047F 26120.95099737 .00000011 00000+0 -30706-5 0 9993 2 43481 86.3931 108.1808 0001900 96.7897 263.3515 14.34217335415709 IRIDIUM 162 1 43482U 18047G 26120.94838755 .00000140 00000+0 35524-4 0 9998 2 43482 86.4449 108.1175 0002431 91.0086 269.1394 14.43278931418318 IRIDIUM 160 1 43569U 18061A 26120.82706338 .00000137 00000+0 41939-4 0 9991 2 43569 86.3948 76.5961 0002095 86.3417 273.8018 14.34218825406586 IRIDIUM 166 1 43570U 18061B 26120.85245088 .00000254 00000+0 83626-4 0 9995 2 43570 86.3946 76.5364 0002337 83.2204 276.9258 14.34220250406611 IRIDIUM 158 1 43571U 18061C 26120.89049205 -.00000007 00000+0 -95303-5 0 9997 2 43571 86.3945 76.5308 0002212 88.7725 271.3724 14.34217369406589 IRIDIUM 165 1 43572U 18061D 26120.84609396 .00000004 00000+0 -55484-5 0 9998 2 43572 86.3946 76.5948 0002183 82.5697 277.5747 14.34217359406603 IRIDIUM 155 1 43573U 18061E 26120.94757583 -.00000010 00000+0 -10469-4 0 9993 2 43573 86.3943 76.4237 0002265 86.3920 273.7534 14.34217217406585 IRIDIUM 154 1 43574U 18061F 26120.85877846 .00000036 00000+0 56979-5 0 9992 2 43574 86.3947 76.5918 0002278 82.1362 278.0092 14.34217784406626 IRIDIUM 163 1 43575U 18061G 26120.83974937 .00000220 00000+0 71525-4 0 9998 2 43575 86.3944 76.5165 0002241 88.8997 271.2456 14.34217316406591 IRIDIUM 156 1 43576U 18061H 26120.95391838 .00000003 00000+0 -58942-5 0 9994 2 43576 86.3944 76.4760 0002426 85.5013 274.6460 14.34217500406609 IRIDIUM 164 1 43577U 18061J 26120.93488982 .00000067 00000+0 16867-4 0 9998 2 43577 86.3946 76.5236 0002216 81.5313 278.6134 14.34217679406640 IRIDIUM 159 1 43578U 18061K 26120.90317745 -.00000035 00000+0 -19631-4 0 9993 2 43578 86.3943 76.4749 0002043 87.5371 272.6059 14.34217072406607 IRIDIUM 180 1 43922U 19002A 26120.76313552 .00000078 00000+0 20782-4 0 9992 2 43922 86.4014 13.4175 0002085 86.5468 273.5966 14.34217268382197 IRIDIUM 176 1 43923U 19002B 26120.71752870 .00000521 00000+0 78712-4 0 9997 2 43923 86.6137 13.3870 0002385 79.2368 280.9118 14.72245454392268 IRIDIUM 168 1 43924U 19002C 26120.82656398 .00000258 00000+0 85208-4 0 9993 2 43924 86.4014 13.4668 0002149 84.7881 275.3560 14.34222202382189 IRIDIUM 173 1 43925U 19002D 26120.81387674 .00000008 00000+0 -43350-5 0 9998 2 43925 86.4006 13.3628 0002145 87.9169 272.2272 14.34217587382160 IRIDIUM 169 1 43926U 19002E 26120.74564999 .00000304 00000+0 92720-4 0 9990 2 43926 86.4247 45.0182 0002854 89.8152 270.3373 14.38610820383405 IRIDIUM 172 1 43927U 19002F 26120.73776079 .00000247 00000+0 81048-4 0 9991 2 43927 86.4015 13.4025 0002126 85.8952 274.2487 14.34216732382161 IRIDIUM 175 1 43928U 19002G 26120.93336267 .00000107 00000+0 25752-4 0 9990 2 43928 86.4485 310.2877 0004481 47.4919 312.6660 14.43591122392169 IRIDIUM 171 1 43929U 19002H 26120.71873822 -.00000044 00000+0 -22651-4 0 9997 2 43929 86.4016 13.7112 0002187 81.8739 278.2705 14.34217351382154 IRIDIUM 170 1 43930U 19002J 26120.92760414 .00000618 00000+0 94040-4 0 9990 2 43930 86.6132 13.3019 0002207 85.4262 274.7207 14.72259031392302 IRIDIUM 167 1 43931U 19002K 26120.71239584 .00000021 00000+0 34228-6 0 9999 2 43931 86.4006 13.4350 0002356 80.3594 279.7868 14.34217643382158 IRIDIUM 181 1 56726U 23068S 26120.89314058 .00000209 00000+0 55989-4 0 9994 2 56726 86.4483 76.5566 0002101 81.9026 278.2414 14.43309165155618 IRIDIUM 177 1 56727U 23068T 26120.73111709 .00001031 00000+0 13208-3 0 9997 2 56727 86.1988 351.3337 0002331 92.7947 267.3541 14.80243776159343 IRIDIUM 174 1 56728U 23068U 26120.71135048 .00000895 00000+0 13800-3 0 9993 2 56728 86.6141 13.5346 0002360 90.0570 270.0917 14.72251886159038 IRIDIUM 178 1 56729U 23068V 26120.85535668 .00001301 00000+0 16784-3 0 9998 2 56729 86.6562 45.1314 0002365 80.2284 279.9205 14.80233018159360 IRIDIUM 179 1 56730U 23068W 26120.30917298 .00000590 00000+0 74200-4 0 9990 2 56730 86.6790 54.1978 0002778 81.1931 278.9605 14.80228304159284